Regional Weather Roundup
Issued by NWS

Home | Current Version | Previous Version | Graphics & Text | Print | Product List | Glossary On
Versions: 1 2 3 4 5 6 7 8 9 10 11 12 13 14 15 16 17 18 19 20 21 22 23 24 25 26 27
000
ASUS45 KBOU 220807
RWRCO

WEATHER ROUNDUP FOR COLORADO
NATIONAL WEATHER SERVICE DENVER/BOULDER CO
200 AM MDT SUN OCT 22 2017

NOTE: "FAIR" INDICATES FEW OR NO CLOUDS BELOW 12000 FEET WITH NO
SIGNIFICANT WEATHER AND/OR OBSTRUCTIONS TO VISIBILITY.

COZ001>005-013-030-031-220900-
...NORTHWEST COLORADO...

CITY           SKY/WX    TMP DP  RH WIND       PRES   REMARKS
CRAIG          FAIR      27  22  81 E5        30.37R WCI  22
HAYDEN         CLOUDY    29  23  78 E7        30.38R WCI  22
MEEKER         FAIR      29  23  78 VRB3      30.37R
RABBIT EARS PA FAIR      19  18  93 W14G31    30.31S WCI   6
STEAMBOAT SPGS CLOUDY    29  23  78 SW9       30.37R WCI  21
WALDEN         NOT AVBL
$$

COZ006>008-011-220900-
...WEST CENTRAL VALLEYS...

CITY           SKY/WX    TMP DP  RH WIND       PRES   REMARKS
GRAND JUNCTION FAIR      39  13  34 SE12      30.36R
MONTROSE       FAIR      33  17  51 SE12      30.41R WCI  24
EAGLE          FAIR      27  20  75 CALM      30.42R
RIFLE          FAIR      31  23  72 CALM      30.39R
DELTA          FAIR      35  10  35 NE7       30.40R WCI  29
NUCLA          FAIR      32   9  37 E3        30.44R
$$

COZ017>023-064>068-220900-
...SOUTHWEST COLORADO...

CITY           SKY/WX    TMP DP  RH WIND       PRES   REMARKS
DURANGO        FAIR      29   7  39 N3        30.35R
CORTEZ         FAIR      27  10  49 E6        30.38R WCI  20
PAGOSA SPRINGS FAIR      28   2  33 CALM      30.38S
TELLURIDE      FAIR      28  14  55 SE6       30.45R WCI  22
WOLF CREEK PAS FAIR      25   0  33 SW13      30.48S WCI  13
$$

COZ009-010-012-014-032>034-037-058>063-220900-
...CENTRAL COLORADO...

CITY           SKY/WX    TMP DP  RH WIND       PRES   REMARKS
ASPEN          FAIR      23  18  81 SW7       30.38S WCI  15
BUENA VISTA    FAIR      37   8  30 NW13G22   30.28S
COPPER MTN     FAIR      19  12  73 MISG      30.36S
BERTHOUD PASS  FAIR      14   5  67 NW46G60   30.24F WCI -10
COTTONWOOD PAS FAIR      36   9  32 W26G40    30.28F
GUNNISON       FAIR      22  15  75 CALM      30.42R
KREMMLING      FAIR      30  21  69 E8        30.36R WCI  23
LEADVILLE      FAIR      27   7  42 NW12G26   30.33R WCI  17
MONARCH PASS   FAIR      19   5  53 W47       30.44S WCI  -3
SALIDA         FAIR      39   9  29 N13G23    30.34S
SUNLIGHT       FAIR      19  10  68 SW13G20   30.44S WCI   7
WILKERSON PASS FAIR      23   9  54 W5        30.32S WCI  17
$$

COZ069>075-220900-
...SAN LUIS VALLEY/SANGRE DE CRISTO MOUNTAINS...

CITY           SKY/WX    TMP DP  RH WIND       PRES   REMARKS
ALAMOSA        FAIR      19   8  62 W5        30.34R WCI  12
DEL NORTE      FAIR      23   3  42 W10       30.36R WCI  12
LA VETA PASS   FAIR      30   3  31 S29G41    30.40R WCI  15
SAGUACHE       FAIR      30  12  47 W8        30.36R WCI  23
$$

COZ035-036-038>040-220900-
...NORTHERN COLORADO FRONT RANGE...

CITY           SKY/WX    TMP DP  RH WIND       PRES   REMARKS
DENVER INTL AP FAIR      39  12  33 S13       30.12S
DMNS CITY PARK   N/A     38  14  37 SE9       30.13F
AURORA         PTCLDY    36  12  37 S9        30.14S
FRONT RANGE AP FAIR      41  14  33 SW12      30.13F
ERIE MUNI ARPT FAIR      39  16  39 SE5       30.16S
BOULDER MUN AP FAIR      46  14  27 SW10      30.09F
CENTENNIAL     FAIR      34  12  40 S9        30.14S WCI  27
BROOMFIELD     FAIR      48  12  23 W21G29    30.13S
FORT COLLINS   FAIR      33  23  66 NE7       30.11F WCI  27
LONGMONT       FAIR      31  22  68 CALM      30.12R
$$

COZ041-046-047-076>085-087-088-220900-
...PIKES PEAK/PALMER DIVIDE AND SOUTHERN FOOTHILLS...

CITY           SKY/WX    TMP DP  RH WIND       PRES   REMARKS
COLO. SPRINGS  FAIR      34  11  38 NE6       30.20R WCI  29
A. F. ACADEMY  FAIR      35   7  31 SE9       30.18R WCI  27
SCHRIEVER AFB  FAIR      34   9  35 SW6       30.20S WCI  29
CHEYENNE MTN   FAIR      39   5  24 SE3       30.14S
ELLICOTT         N/A    N/A N/A N/A CALM      30.19R
FALCON         FAIR      32   7  35 SW7       30.21R WCI  26
FORT CARSON    FAIR      33  10  39 CALM      30.18R
LIMON          FAIR      18  14  84 N5        30.18R WCI  11
MONUMENT HILL  FAIR      28  12  50 S8        30.20S WCI  20
CANON CITY     FAIR      45  12  26 W13       30.19S
WALSENBURG     FAIR      41  10  28 W13       30.21S
TRINIDAD       FAIR      30  25  81 NW8       30.23R WCI  22
$$

COZ042>045-048>051-090-091-220900-
...NORTHEAST COLORADO...

CITY           SKY/WX    TMP DP  RH WIND       PRES   REMARKS
GREELEY ARPT   FAIR      28  22  78 CALM      30.12S
AKRON          FAIR      32  17  54 SW10      30.13R WCI  24
BURLINGTON     FAIR      27  19  72 W7        30.15S WCI  19
WRAY           FAIR      32  21  64 W7        30.13R WCI  26
YUMA           NOT AVBL
STERLING       NOT AVBL
HOLYOKE        FAIR      43  21  42 NW10      30.11R
FORT MORGAN    FAIR      27  15  59 W6        30.13S WCI  21
$$

COZ086-089-092>099-220900-
...SOUTHEAST COLORADO...

CITY           SKY/WX    TMP DP  RH WIND       PRES   REMARKS
PUEBLO         FAIR      30  16  56 N3        30.19S
LA JUNTA       FAIR      35  17  47 SW9       30.21R WCI  28
LAMAR          FAIR      25  16  68 S9        30.19R WCI  15
SPRINGFIELD      N/A     31  17  56 W7        30.21S WCI  24
$$




USA.gov is the U.S. government's official web portal to all federal, state and local government web resources and services.